Appleton, MN

12:05 PM CST on November 13, 2019 (GMT -0600)
Appleton Municipal

Weather History for KAQP - August, 2019

Change the Weather History Date:

Monday, August 5, 2019

  Actual Average Record
Temperature  
Mean Temperature 72 °F -  
Max Temperature 82 °F 78 °F 96 °F (2001)
Min Temperature 62 °F 56 °F 48 °F (2004)
Cooling Degree Days 7    
Growing Degree Days 22 (Base 50)    
Moisture  
Dew Point 65 °F    
Average Humidity 75    
Maximum Humidity 94    
Minimum Humidity 48    
Precipitation  
Precipitation 0.00 in - - ()
Sea Level Pressure  
Sea Level Pressure 29.88 in    
Wind  
Wind Speed 3 mph (NNW)    
Max Wind Speed 16 mph    
Max Gust Speed 22 mph    
Visibility 8 miles    
Events Fog    
Averages and records for this station are not official NWS values.
T = Trace of Precipitation, MM = Missing Value Source: NWS Daily Summary

Daily Weather History Graph

Daily Weather History Graph

Search for Another Location

Airport or City:

Astronomy

Aug. 05, 2019 Rise Set
Actual Time 6:13 AM CDT 8:46 PM CDT
Civil Twilight 5:39 AM CDT 9:19 PM CDT
Nautical Twilight 4:57 AM CDT 10:01 PM CDT
Astronomical Twilight 4:09 AM CDT 10:48 PM CDT
Moon 11:44 AM CDT (8/5) 11:43 PM CDT (8/5)
Length of Visible Light 15h 39m
Length of Day
14h 33m
Waxing Crescent, 28% of the Moon is Illuminated
Aug 5
Waxing Crescent
Aug 7
First Quarter
Aug 15
Full
Aug 23
Last Quarter
Aug 30
New

Hourly Weather History & Observations

Time (CDT) Temp. Heat Index Dew Point Humidity Pressure Visibility Wind Dir Wind Speed Gust Speed Precip Events Conditions
12:11 AM 71.6 °F - 66.2 °F 83% 29.94 in 10.0 mi Calm Calm - N/A   Clear
12:31 AM 71.6 °F - 66.2 °F 83% 29.94 in 10.0 mi Calm Calm - N/A   Clear
12:51 AM 71.6 °F - 66.2 °F 83% 29.93 in 10.0 mi Calm Calm - N/A   Clear
1:12 AM 71.6 °F - 66.2 °F 83% 29.93 in 10.0 mi Calm Calm - N/A   Clear
1:31 AM 69.8 °F - 66.2 °F 88% 29.93 in 0.8 mi Calm Calm - N/A   Mist
1:55 AM 69.8 °F - 66.2 °F 88% 29.92 in 4.0 mi Calm Calm - N/A   Clear
2:11 AM 69.8 °F - 66.2 °F 88% 29.91 in 7.0 mi Calm Calm - N/A   Clear
2:36 AM 68.0 °F - 64.4 °F 88% 29.90 in 1.0 mi Calm Calm - N/A   Mist
2:51 AM 69.8 °F - 66.2 °F 88% 29.90 in 1.8 mi Calm Calm - N/A   Clear
3:11 AM 71.6 °F - 68.0 °F 88% 29.90 in 0.5 mi Calm Calm - N/A Fog Fog
3:31 AM 69.8 °F - 66.2 °F 88% 29.89 in 1.2 mi Calm Calm - N/A   Clear
3:54 AM 66.2 °F - 64.4 °F 94% 29.89 in 1.0 mi Calm Calm - N/A   Mostly Cloudy
4:31 AM 64.4 °F - 62.6 °F 94% 29.88 in 0.2 mi Calm Calm - N/A Fog Fog
4:50 AM 64.4 °F - 62.6 °F 94% 29.88 in 0.2 mi Calm Calm - N/A Fog Fog
5:11 AM 66.2 °F - 64.4 °F 94% 29.87 in 0.5 mi Calm Calm - N/A Fog Fog
5:37 AM 66.2 °F - 62.6 °F 88% 29.87 in 0.2 mi Calm Calm - N/A Fog Fog
5:51 AM 66.2 °F - 64.4 °F 94% 29.87 in 0.2 mi Calm Calm - N/A Fog Fog
6:14 AM 66.2 °F - 64.4 °F 94% 29.87 in 0.5 mi Calm Calm - N/A Fog Fog
6:32 AM 64.4 °F - 62.6 °F 94% 29.87 in 0.2 mi Calm Calm - N/A Fog Fog
6:52 AM 66.2 °F - 62.6 °F 88% 29.88 in 0.2 mi Calm Calm - N/A Fog Fog
7:11 AM 66.2 °F - 64.4 °F 94% 29.89 in 0.2 mi Calm Calm - N/A Fog Fog
8:11 AM 71.6 °F - 68.0 °F 88% 29.89 in 10.0 mi Calm Calm - N/A   Clear
8:32 AM 73.4 °F - 69.8 °F 88% 29.89 in 10.0 mi NNW 3.5 mph - N/A   Scattered Clouds
8:54 AM 73.4 °F - 69.8 °F 88% 29.89 in 10.0 mi North 4.6 mph - N/A   Scattered Clouds
9:12 AM 73.4 °F - 69.8 °F 88% 29.89 in 10.0 mi NNE 3.5 mph - N/A   Clear
9:31 AM 77.0 °F - 69.8 °F 78% 29.89 in 10.0 mi NE 4.6 mph - N/A   Clear
9:51 AM 77.0 °F - 69.8 °F 78% 29.89 in 10.0 mi NNE 5.8 mph - N/A   Clear
10:11 AM 77.0 °F - 69.8 °F 78% 29.89 in 10.0 mi Calm Calm - N/A   Clear
10:36 AM 78.8 °F - 69.8 °F 74% 29.88 in 10.0 mi WNW 3.5 mph - N/A   Scattered Clouds
10:51 AM 78.8 °F - 69.8 °F 74% 29.88 in 10.0 mi West 4.6 mph - N/A   Scattered Clouds
11:13 AM 78.8 °F - 69.8 °F 74% 29.88 in 10.0 mi WNW 10.4 mph - N/A   Scattered Clouds
11:31 AM 80.6 °F 83.9 °F 69.8 °F 70% 29.88 in 10.0 mi NW 8.1 mph - N/A   Scattered Clouds
11:51 AM 78.8 °F - 69.8 °F 74% 29.86 in 10.0 mi NW 3.5 mph - N/A   Clear
12:13 PM 80.6 °F 83.9 °F 69.8 °F 70% 29.85 in 10.0 mi West 3.5 mph - N/A   Clear
12:31 PM 80.6 °F 83.9 °F 69.8 °F 70% 29.84 in 10.0 mi Calm Calm - N/A   Clear
12:51 PM 80.6 °F 83.2 °F 68.0 °F 65% 29.84 in 10.0 mi Calm Calm - N/A   Clear
1:14 PM 82.4 °F 86.3 °F 69.8 °F 66% 29.84 in 10.0 mi WNW 3.5 mph - N/A   Clear
1:31 PM 82.4 °F 86.3 °F 69.8 °F 66% 29.85 in 10.0 mi WNW 6.9 mph - N/A   Clear
1:53 PM 82.4 °F 86.3 °F 69.8 °F 66% 29.85 in 10.0 mi WNW 8.1 mph - N/A   Clear
2:11 PM 82.4 °F 85.4 °F 68.0 °F 62% 29.86 in 10.0 mi NW 11.5 mph 17.3 mph N/A   Clear
2:32 PM 82.4 °F 84.6 °F 66.2 °F 58% 29.86 in 10.0 mi NW 10.4 mph - N/A   Clear
2:50 PM 82.4 °F 83.9 °F 64.4 °F 54% 29.86 in 10.0 mi North 12.7 mph 18.4 mph N/A   Scattered Clouds
3:14 PM 82.4 °F 83.4 °F 62.6 °F 51% 29.86 in 10.0 mi NNW 13.8 mph 21.9 mph N/A   Scattered Clouds
3:35 PM 82.4 °F 83.9 °F 64.4 °F 54% 29.86 in 10.0 mi North 16.1 mph 20.7 mph N/A   Clear
3:55 PM 80.6 °F 82.3 °F 64.4 °F 58% 29.87 in 10.0 mi NNW 12.7 mph - N/A   Clear
4:11 PM 80.6 °F 81.8 °F 62.6 °F 54% 29.87 in 10.0 mi NNW 13.8 mph 19.6 mph N/A   Clear
4:31 PM 80.6 °F 81.8 °F 62.6 °F 54% 29.87 in 10.0 mi NNW 15.0 mph 18.4 mph N/A   Clear
4:51 PM 80.6 °F 81.5 °F 60.8 °F 51% 29.86 in 10.0 mi NNW 11.5 mph 18.4 mph N/A   Clear
5:11 PM 80.6 °F 81.5 °F 60.8 °F 51% 29.86 in 10.0 mi NNW 13.8 mph 20.7 mph N/A   Clear
5:31 PM 80.6 °F 81.1 °F 59.0 °F 48% 29.86 in 10.0 mi North 16.1 mph - N/A   Clear
5:52 PM 80.6 °F 81.5 °F 60.8 °F 51% 29.86 in 10.0 mi NNW 16.1 mph 20.7 mph N/A   Clear
6:11 PM 78.8 °F - 60.8 °F 54% 29.85 in 10.0 mi NNW 12.7 mph 17.3 mph N/A   Clear
6:31 PM 78.8 °F - 60.8 °F 54% 29.85 in 10.0 mi NNW 10.4 mph 16.1 mph N/A   Clear
6:51 PM 78.8 °F - 60.8 °F 54% 29.85 in 10.0 mi NNW 10.4 mph 16.1 mph N/A   Clear
7:30 PM 77.0 °F - 60.8 °F 57% 29.85 in 10.0 mi Calm Calm - N/A   Clear
7:57 PM 75.2 °F - 60.8 °F 61% 29.86 in 10.0 mi NNW 5.8 mph - N/A   Clear
8:11 PM 75.2 °F - 60.8 °F 61% 29.86 in 10.0 mi NNW 3.5 mph - N/A   Clear
8:31 PM 73.4 °F - 60.8 °F 65% 29.87 in 10.0 mi Calm Calm - N/A   Clear
8:51 PM 73.4 °F - 60.8 °F 65% 29.88 in 10.0 mi Calm Calm - N/A   Clear
9:12 PM 69.8 °F - 62.6 °F 78% 29.88 in 10.0 mi Calm Calm - N/A   Clear
9:31 PM 66.2 °F - 62.6 °F 88% 29.89 in 10.0 mi Calm Calm - N/A   Clear
9:50 PM 66.2 °F - 60.8 °F 83% 29.90 in 10.0 mi Calm Calm - N/A   Clear
10:14 PM 66.2 °F - 60.8 °F 83% 29.90 in 10.0 mi Calm Calm - N/A   Clear
10:34 PM 64.4 °F - 60.8 °F 88% 29.91 in 10.0 mi Calm Calm - N/A   Clear
10:51 PM 64.4 °F - 60.8 °F 88% 29.91 in 10.0 mi Calm Calm - N/A   Clear
11:10 PM 64.4 °F - 60.8 °F 88% 29.91 in 10.0 mi Calm Calm - N/A   Clear
11:35 PM 62.6 °F - 60.8 °F 94% 29.91 in 10.0 mi Calm Calm - N/A   Clear
11:51 PM 62.6 °F - 60.8 °F 94% 29.91 in 10.0 mi Calm Calm - N/A   Clear